Location: Bauerbach
(50.4985°N, 10.3912°E)
Time: 02:04:23
(UTC+00:00)

Cosmos 1833 Rocket - Pass Details

Date: 13 January 2026
Orbit: 831 x 839 km, 71.0° (Epoch: 6 February)

Event Time Altitude Azimuth Distance (km) Brightness Sun altitude
Exits shadow 03:59:32 64° 46° (NE) 928 2.9 -30.2°
Maximum altitude 03:59:43 64° 57° (ENE) 924 2.9 -30.2°
Drops below altitude 10° 04:05:17 10° 139° (SE) 2,443 5.5 -29.3°
Sets 04:07:44 0° 142° (SE) 3,372 6.3 -28.9°
